Regional Weather Roundup
Issued by NWS

Home | Current Version | Previous Version | Graphics & Text | Print | Product List | Glossary On
Versions: 1 2 3 4 5 6 7 8 9 10 11 12 13 14 15 16 17 18 19 20 21 22 23 24 25 26 27 28 29 30 31 32 33 34 35 36 37 38 39 40 41 42 43 44 45 46 47 48 49 50
000
ASUS43 KLMK 030010
RWRKY
KENTUCKY REGIONAL WEATHER ROUNDUP
NATIONAL WEATHER SERVICE LOUISVILLE KY
800 PM EDT SUN AUG 02 2015

NOTE "FAIR" INDICATES FEW OR NO CLOUDS BELOW 12,000 FEET
WITH NO SIGNIFICANT WEATHER AND/OR OBSTRUCTIONS TO VISIBILITY.

KYZ001>023-026-027-061>063-070>075-030100-
WESTERN AND SOUTH CENTRAL KENTUCKY

CITY           SKY/WX    TMP DP  RH WIND       PRES   REMARKS
PADUCAH        SUNNY     86  72  62 S5        29.88F HX  92
HENDERSON      SUNNY     82  70  65 S5        29.87F
OWENSBORO      CLEAR     84  68  58 SW6       29.90F
HOPKINSVILLE   NOT AVBL
BOWLING GREEN  CLEAR     84  62  47 SE6       29.92F
GLASGOW        CLEAR    N/A N/A N/A CALM      29.93S
$$

KYZ024-025-028>034-038-045-046-053-030100-
NORTH CENTRAL KENTUCKY

CITY           SKY/WX    TMP DP  RH WIND       PRES   REMARKS
LOUISVILLE/SDF PTCLDY    86  58  38 SW10      29.89F
LOUISVILLE/LOU CLEAR     86  60  41 SW6       29.90F
FORT KNOX      CLEAR     82  64  52 S5        29.90F
$$

KYZ035>037-039>044-047>052-055>060-089>105-030100-
NORTHEAST KENTUCKY

CITY           SKY/WX    TMP DP  RH WIND       PRES   REMARKS
LEXINGTON      CLEAR     82  61  48 SW3       29.94F
COVINGTON      PTCLDY    81  62  52 S7        29.90F
FRANKFORT      CLEAR     82  60  47 S7        29.91F
$$

KYZ054-064>069-076>088-106>120-030100-
SOUTHEAST KENTUCKY

CITY           SKY/WX    TMP DP  RH WIND       PRES   REMARKS
JACKSON        CLEAR     79  59  50 CALM      29.96F
LONDON         CLEAR     83  59  44 CALM      29.95F
SOMERSET       CLEAR     81  55  41 CALM      29.94F
MIDDLESBORO    CLEAR     79  67  66 NW5       29.95S
MONTICELLO     CLEAR     80  71  74 CALM      29.96F
$$




USA.gov is the U.S. government's official web portal to all federal, state and local government web resources and services.